timestamp,surface_pressure_avg,surface_temp_avg,battery_voltage,lat,long
2021-03-21 00:09:01+00:00,262.7397,1.53,12.97,47.84626,-54.09684
2021-03-21 00:19:01+00:00,269.3531,1.51,12.65,47.84626,-54.09684
2021-03-21 00:29:01+00:00,269.7247,1.52,12.65,47.84626,-54.09684
2021-03-21 00:39:01+00:00,269.3181,1.51,12.65,47.84626,-54.09684
2021-03-21 00:49:01+00:00,271.828,1.51,12.65,47.84626,-54.09684
2021-03-21 00:59:01+00:00,272.7464,1.51,12.65,47.84626,-54.09684
2021-03-21 01:09:01+00:00,272.4614,1.5,12.65,47.84626,-54.09684
2021-03-21 01:19:01+00:00,272.8614,1.5,12.65,47.84626,-54.09684
2021-03-21 01:29:01+00:00,277.2131,1.5,12.65,47.84626,-54.09684
2021-03-21 01:39:01+00:00,282.8297,1.5,12.65,47.84626,-54.09684
2021-03-21 01:49:01+00:00,284.1947,1.5,12.65,47.84626,-54.09684
2021-03-21 01:59:01+00:00,285.558,1.49,12.65,47.84626,-54.09684
2021-03-21 02:09:01+00:00,294.0181,1.49,12.65,47.84626,-54.09684
2021-03-21 02:19:01+00:00,298.6397,1.5,12.57,47.84626,-54.09684
2021-03-21 02:29:01+00:00,289.5731,1.5,12.57,47.84626,-54.09684
2021-03-21 02:39:01+00:00,288.6997,1.5,12.57,47.84626,-54.09684
2021-03-21 02:49:01+00:00,299.4747,1.5,12.57,47.84626,-54.09684
2021-03-21 02:59:01+00:00,302.8497,1.5,12.57,47.84626,-54.09684
2021-03-21 03:09:01+00:00,294.528,1.5,12.57,47.84626,-54.09684
2021-03-21 03:19:01+00:00,292.638,1.5,12.57,47.84626,-54.09684
2021-03-21 03:29:01+00:00,299.698,1.5,12.57,47.84626,-54.09684
2021-03-21 03:39:01+00:00,301.403,1.5,12.57,47.84626,-54.09684
2021-03-21 03:49:01+00:00,296.4297,1.5,12.57,47.84626,-54.09684
2021-03-21 03:59:01+00:00,298.348,1.5,12.57,47.84626,-54.09684
2021-03-21 04:09:01+00:00,301.903,1.48,12.57,47.84626,-54.09684
2021-03-21 04:19:01+00:00,301.7997,1.49,12.57,47.84626,-54.09684
2021-03-21 04:29:01+00:00,298.7197,1.49,12.57,47.84626,-54.09684
2021-03-21 04:39:01+00:00,300.2397,1.48,12.57,47.84626,-54.09684
2021-03-21 04:49:01+00:00,304.2881,1.46,12.57,47.84626,-54.09684
2021-03-21 04:59:01+00:00,306.1147,1.45,12.57,47.84626,-54.09684
2021-03-21 05:09:01+00:00,304.1897,1.44,12.57,47.84626,-54.09684
2021-03-21 05:19:01+00:00,303.5713,1.44,12.57,47.84626,-54.09684
2021-03-21 05:29:01+00:00,306.6863,1.44,12.57,47.84626,-54.09684
2021-03-21 05:39:01+00:00,308.743,1.43,12.57,47.84626,-54.09684
2021-03-21 05:49:01+00:00,307.1346,1.43,12.57,47.84626,-54.09684
2021-03-21 05:59:01+00:00,306.5831,1.4,12.57,47.84626,-54.09684
2021-03-21 06:09:01+00:00,306.933,1.4,12.57,47.84626,-54.09684
2021-03-21 06:19:01+00:00,303.0764,1.4,12.57,47.84626,-54.09684
2021-03-21 06:29:01+00:00,297.0214,1.4,12.57,47.84626,-54.09684
2021-03-21 06:39:01+00:00,296.4497,1.4,12.57,47.84626,-54.09684
2021-03-21 06:49:01+00:00,294.5663,1.4,12.57,47.84626,-54.09684
2021-03-21 06:59:01+00:00,285.0947,1.4,12.57,47.84626,-54.09684
2021-03-21 07:09:01+00:00,279.7147,1.4,12.57,47.84626,-54.09684
2021-03-21 07:19:01+00:00,279.7747,1.4,12.57,47.84626,-54.09684
2021-03-21 07:29:01+00:00,274.2864,1.4,12.57,47.84626,-54.09684
2021-03-21 07:39:01+00:00,262.8447,1.4,12.57,47.84626,-54.09684
2021-03-21 07:49:01+00:00,258.0597,1.4,12.57,47.84626,-54.09684
2021-03-21 07:59:01+00:00,254.9214,1.41,12.57,47.84626,-54.09684
2021-03-21 08:09:01+00:00,248.0948,1.43,12.57,47.84626,-54.09684
2021-03-21 08:19:01+00:00,241.1614,1.47,12.57,47.84626,-54.09684
2021-03-21 08:29:01+00:00,237.7831,1.47,12.57,47.84626,-54.09684
2021-03-21 08:39:01+00:00,231.3631,1.49,12.57,47.84626,-54.09684
2021-03-21 08:49:01+00:00,222.5314,1.5,12.57,47.84626,-54.09684
2021-03-21 08:59:01+00:00,222.0064,1.5,12.57,47.84626,-54.09684
2021-03-21 09:09:01+00:00,222.8715,1.5,12.57,47.84626,-54.09684
2021-03-21 09:19:01+00:00,217.6131,1.5,12.57,47.84626,-54.09684
2021-03-21 09:29:01+00:00,212.3347,1.5,12.57,47.84626,-54.09684
2021-03-21 09:39:01+00:00,211.3431,1.5,12.57,47.84626,-54.09684
2021-03-21 09:49:01+00:00,212.4831,1.5,12.57,47.84626,-54.09684
2021-03-21 09:59:01+00:00,213.4931,1.5,12.57,47.84626,-54.09684
2021-03-21 10:09:01+00:00,213.5115,1.47,12.57,47.84626,-54.09684
2021-03-21 10:19:01+00:00,212.0931,1.42,12.57,47.84626,-54.09684
2021-03-21 10:29:01+00:00,210.8531,1.4,12.57,47.84626,-54.09684
2021-03-21 10:39:01+00:00,213.7164,1.44,12.57,47.84626,-54.09684
2021-03-21 10:49:01+00:00,215.9331,1.48,12.57,47.84626,-54.09684
2021-03-21 10:59:01+00:00,212.5965,1.5,12.57,47.84626,-54.09684
2021-03-21 11:09:01+00:00,212.4064,1.5,12.57,47.84626,-54.09684
2021-03-21 11:19:01+00:00,217.9798,1.5,13.68,47.84626,-54.09684
2021-03-21 11:29:01+00:00,219.0314,1.5,13.68,47.84626,-54.09684
2021-03-21 11:39:01+00:00,215.9865,1.5,13.68,47.84626,-54.09684
2021-03-21 11:49:01+00:00,216.6731,1.5,13.68,47.84626,-54.09684
2021-03-21 11:59:01+00:00,220.8165,1.5,13.68,47.84626,-54.09684
2021-03-21 12:09:01+00:00,221.1414,1.5,13.68,47.84626,-54.09684
2021-03-21 12:19:01+00:00,219.3081,1.5,14.8,47.84626,-54.09684
2021-03-21 12:29:01+00:00,222.8064,1.5,14.8,47.84626,-54.09684
2021-03-21 12:39:01+00:00,227.2164,1.5,14.8,47.84626,-54.09684
2021-03-21 12:49:01+00:00,228.5064,1.5,14.8,47.84626,-54.09684
2021-03-21 12:59:01+00:00,230.5231,1.5,14.8,47.84626,-54.09684
2021-03-21 13:09:01+00:00,234.5464,1.5,14.8,47.84626,-54.09684
2021-03-21 13:19:01+00:00,238.2848,1.5,14.8,47.84626,-54.09684
2021-03-21 13:29:01+00:00,239.4531,1.5,14.8,47.84626,-54.09684
2021-03-21 13:39:01+00:00,241.8614,1.5,14.8,47.84626,-54.09684
2021-03-21 13:49:01+00:00,244.4147,1.5,14.8,47.84626,-54.09684
2021-03-21 13:59:01+00:00,248.0298,1.48,14.8,47.84626,-54.09684
2021-03-21 14:09:01+00:00,252.0598,1.4,14.8,47.84626,-54.09684
2021-03-21 14:19:01+00:00,253.3097,1.4,14.8,47.84626,-54.09684
2021-03-21 14:29:01+00:00,254.8848,1.4,14.8,47.84626,-54.09684
2021-03-21 14:39:01+00:00,260.9064,1.4,14.8,47.84626,-54.09684
2021-03-21 14:49:01+00:00,265.9781,1.4,14.8,47.84626,-54.09684
2021-03-21 14:59:01+00:00,266.1464,1.4,14.8,47.84626,-54.09684
2021-03-21 15:09:01+00:00,270.5281,1.4,14.8,47.84626,-54.09684
2021-03-21 15:19:01+00:00,276.473,1.4,14.64,47.84626,-54.09684
2021-03-21 15:29:01+00:00,275.063,1.4,14.64,47.84626,-54.09684
2021-03-21 15:39:01+00:00,272.5447,1.4,14.64,47.84626,-54.09684
2021-03-21 15:49:01+00:00,278.6248,1.4,14.64,47.84626,-54.09684
2021-03-21 15:59:01+00:00,281.7147,1.4,14.64,47.84626,-54.09684
2021-03-21 16:09:01+00:00,279.0565,1.4,14.64,47.84626,-54.09684
2021-03-21 16:19:01+00:00,281.6848,1.4,14.56,47.84626,-54.09684
2021-03-21 16:29:01+00:00,287.0198,1.4,14.56,47.84626,-54.09684
2021-03-21 16:39:01+00:00,285.5797,1.4,14.56,47.84626,-54.09684
2021-03-21 16:49:01+00:00,281.6864,1.4,14.56,47.84626,-54.09684
2021-03-21 16:59:01+00:00,286.2564,1.4,14.56,47.84626,-54.09684
2021-03-21 17:09:01+00:00,286.8814,1.4,14.56,47.84626,-54.09684
2021-03-21 17:19:01+00:00,283.9347,1.4,14.48,47.84626,-54.09684
2021-03-21 17:29:01+00:00,283.188,1.4,14.48,47.84626,-54.09684
2021-03-21 17:39:01+00:00,287.7697,1.4,14.48,47.84626,-54.09684
2021-03-21 17:49:01+00:00,288.4314,1.41,14.48,47.84626,-54.09684
2021-03-21 17:59:01+00:00,285.5614,1.42,14.48,47.84626,-54.09684
2021-03-21 18:09:01+00:00,282.8747,1.4,14.48,47.84626,-54.09684
2021-03-21 18:19:01+00:00,283.2147,1.4,14.32,47.84626,-54.09684
2021-03-21 18:29:01+00:00,280.7363,1.4,14.32,47.84626,-54.09684
2021-03-21 18:39:01+00:00,275.7081,1.4,14.32,47.84626,-54.09684
2021-03-21 18:49:01+00:00,271.7314,1.4,14.32,47.84626,-54.09684
2021-03-21 18:59:01+00:00,270.6781,1.4,14.32,47.84626,-54.09684
2021-03-21 19:09:01+00:00,267.7931,1.4,14.32,47.84626,-54.09684
2021-03-21 19:19:01+00:00,261.9114,1.4,14.08,47.84626,-54.09684
2021-03-21 19:29:01+00:00,257.0397,1.4,14.08,47.84626,-54.09684
2021-03-21 19:39:01+00:00,254.0014,1.4,14.08,47.84626,-54.09684
2021-03-21 19:49:01+00:00,247.9697,1.44,14.08,47.84626,-54.09684
2021-03-21 19:59:01+00:00,240.4547,1.47,14.08,47.84626,-54.09684
2021-03-21 20:09:01+00:00,238.3881,1.47,14.08,47.84626,-54.09684
2021-03-21 20:19:01+00:00,239.2464,1.47,13.84,47.84626,-54.09684
2021-03-21 20:29:01+00:00,233.9781,1.46,13.84,47.84626,-54.09684
2021-03-21 20:39:01+00:00,227.5364,1.46,13.84,47.84626,-54.09684
2021-03-21 20:49:01+00:00,225.6797,1.46,13.84,47.84626,-54.09684
2021-03-21 20:59:01+00:00,225.3514,1.46,13.84,47.84626,-54.09684
2021-03-21 21:09:01+00:00,223.5548,1.46,13.84,47.84626,-54.09684
2021-03-21 21:19:01+00:00,219.9231,1.48,13.53,47.84626,-54.09684
2021-03-21 21:29:01+00:00,218.8931,1.48,13.53,47.84626,-54.09684
2021-03-21 21:39:01+00:00,219.6997,1.5,13.53,47.84626,-54.09684
2021-03-21 21:49:01+00:00,218.1098,1.5,13.53,47.84626,-54.09684
2021-03-21 21:59:01+00:00,215.0281,1.58,13.53,47.84626,-54.09684
2021-03-21 22:09:01+00:00,213.2664,1.6,13.53,47.84626,-54.09684
2021-03-21 22:19:01+00:00,213.5414,1.59,13.13,47.84626,-54.09684
2021-03-21 22:29:01+00:00,210.8281,1.59,13.13,47.84626,-54.09684
2021-03-21 22:39:01+00:00,208.8881,1.6,13.13,47.84626,-54.09684
2021-03-21 22:49:01+00:00,212.6248,1.59,13.13,47.84626,-54.09684
2021-03-21 22:59:01+00:00,217.5264,1.58,13.13,47.84626,-54.09684
2021-03-21 23:09:01+00:00,218.7265,1.6,13.13,47.84626,-54.09684
2021-03-21 23:19:01+00:00,218.1998,1.7,12.81,47.84626,-54.09684
2021-03-21 23:29:01+00:00,222.4132,1.74,12.81,47.84626,-54.09684
2021-03-21 23:39:01+00:00,227.4298,1.78,12.81,47.84626,-54.09684
2021-03-21 23:49:01+00:00,226.6564,1.8,12.81,47.84626,-54.09684
2021-03-21 23:59:01+00:00,225.5664,1.76,12.81,47.84626,-54.09684
